Вернуться в каталог

STARLINK-34282

АктивенСвязьVLEO
NORAD 64454·PAYLOAD·🇺🇸 United States

Запущен Jun 18, 2025 с Cape Canaveral Space Force Station

Loading…

Ближайшие Пролёты (ближайшие 24 часа)

TLE

СвежийSource: CelesTrak SupGP

Эпоха: Sep 15, 2026, 02:42 UTC

1 64454C 25130S   26258.11298611  .00011072  00000+0  35597-3 0  2586
2 64454  53.1580 289.6866 0001349  94.2853 154.0864 15.31702634    11

Отслеживайте STARLINK-34282 в реальном времени с AllMySat

Download on the App Store